Location: ??
(35.6316°N, 139.6107°E)
Time: 00:19:51
(UTC+00:00)

Daily predictions for brighter satellites

Satellite Brightness Start Highest point End
(mag) Time Altitude Azimuth Time Altitude Azimuth Time Altitude Azimuth
Cosmos 2263 Rocket 2.7 08:38:31 10° N 08:43:52 40° ENE 08:49:10 10° SE
Okean O Rocket 3.2 08:41:52 10° ESE 08:44:31 16° ENE 08:47:12 10° NNE
Cosmos 2279 Rocket 4.0 08:41:29 10° N 08:47:44 70° E 08:53:57 10° SSE
H-2A R/B 1.1 08:47:48 10° WSW 08:49:19 22° S 08:50:34 10° ESE
Cosmos 2219 4.4 08:45:58 10° NNW 08:51:30 49° WSW 08:56:58 10° S
SKYMED 2 3.7 08:48:04 10° N 08:52:25 85° WNW 08:56:45 10° SSW
Cosmos 2333 Rocket 3.9 08:59:45 10° ESE 09:01:41 12° E 09:02:13 12° E
Cosmos 540 Rocket 4.0 08:57:54 10° NNW 09:02:57 63° WSW 09:07:57 10° S
Cosmos 2180 Rocket 4.5 08:57:33 10° N 09:03:50 70° E 09:10:09 10° SSE
Cosmos 968 Rocket 3.6 08:59:16 10° S 09:04:23 57° ESE 09:09:31 10° NNE
BREEZE M DEB (TANK) 3.4 08:52:56 10° SW 09:04:42 82° SE 09:08:20 10° NE
Cosmos 1378 Rocket 3.6 09:01:42 10° N 09:06:00 56° E 09:10:13 10° SSE
Cosmos 2082 4.1 09:01:27 10° NNW 09:07:10 71° WSW 09:12:50 10° S
Cosmos 2360 Rocket 3.2 09:03:13 10° SSE 09:07:38 24° E 09:12:02 10° NE
IRIDIUM 106 4.3 09:07:36 10° S 09:12:44 64° E 09:17:53 10° N
Meteor 1-12 Rocket 4.3 09:06:54 10° S 09:12:48 68° E 09:18:47 10° NNE
BREEZE-M R/B 3.6 09:12:38 10° W 09:14:23 31° NNW 09:16:46 10° NE
DNEPR-1 R/B 3.9 09:13:06 10° S 09:17:18 48° ESE 09:22:12 10° NE
ISS -3.8 09:15:36 10° NW 09:18:58 67° NE 09:21:02 21° ESE
MOS 1-B 4.3 09:13:55 10° SSE 09:19:40 69° ENE 09:25:27 10° N
Cosmos 1437 Rocket 2.6 09:16:09 10° S 09:19:51 60° E 09:23:32 10° NNE
Tiangong 0.3 09:22:11 10° SSE 09:22:47 11° SSE 09:22:47 11° SSE
Cosmos 2221 Rocket 4.5 09:23:21 10° NNW 09:27:47 54° W 09:32:13 10° S
Landsat 5 4.5 09:24:02 10° NE 09:27:49 27° E 09:31:29 10° SSE
ARGOS Delta rocket 4.3 09:25:48 10° N 09:30:55 69° WNW 09:35:43 10° SSW
Cosmos 841 Rocket 4.3 09:27:10 10° NNW 09:32:11 53° WSW 09:37:09 10° S
SEDSat Delta rocket 4.2 09:28:08 10° W 09:33:45 53° S 09:37:46 22° ESE
SL-4 R/B 2.9 09:30:38 10° NW 09:34:54 40° NE 09:36:38 29° E
Meteor 1-15 Rocket 4.2 09:30:27 10° S 09:36:02 89° W 09:41:37 10° N
Cosmos 2322 Rocket 2.1 09:31:08 10° SSW 09:36:47 72° ESE 09:42:28 10° NNE
USA 267 3.4 09:33:29 20° ESE 09:38:04 60° NE 09:44:29 10° NW
USA 290 2.4 09:35:43 10° S 09:38:43 46° ESE 09:38:43 46° ESE
COBE Rocket 3.9 09:34:09 10° S 09:39:02 81° WSW 09:43:49 10° NNW
Cosmos 2237 4.1 09:33:33 10° SSW 09:39:14 79° ESE 09:44:56 10° NNE
OAO 3 Copernicus 4.2 09:35:22 10° W 09:40:25 83° S 09:42:44 32° E
Meteor 2-5 Rocket 3.8 09:35:49 10° N 09:41:11 51° ENE 09:46:22 11° SSE
CZ-4B R/B 3.2 09:36:51 10° SSE 09:42:12 85° WSW 09:47:42 10° NNW
CZ-4 R/B 1.4 09:39:46 12° SSE 09:43:31 64° ENE 09:47:40 10° N
Cosmos 2026 Rocket 3.9 09:38:56 10° S 09:44:52 60° E 09:50:48 10° NNE
BREEZE-M DEB (TANK) 2.5 09:43:39 10° SSW 09:45:54 51° SE 09:45:59 51° SE
CZ-3 Stage 3 3.5 09:42:03 10° W 09:46:48 58° S 09:57:17 23° ESE
COSMOS 2455 3.4 09:44:55 10° SSE 09:49:58 32° ESE 09:49:58 32° ESE
Okean-O 4.1 09:58:35 22° NNE 09:58:35 22° NNE 10:00:38 10° N
Aureole 1 Rocket 4.5 09:50:44 10° S 09:58:05 46° ESE 10:04:11 10° NNE
Cosmos 1570 Rocket 3.9 09:57:01 10° NNW 10:02:17 89° ENE 10:05:22 25° SSE
OAO 2 Rocket 3.1 10:01:46 10° W 10:06:41 76° S 10:07:26 62° SE
SL-16 R/B 3.4 10:02:20 10° SW 10:07:40 42° WNW 10:13:03 10° N
Cosmos 1844 Rocket 3.2 10:03:05 10° N 10:08:10 40° ENE 10:08:10 40° ENE
Cosmos 2285 Rocket 4.3 10:03:15 10° NNW 10:09:34 68° WSW 10:15:54 10° S
Cosmos 1782 Rocket 4.1 10:05:37 10° SSW 10:09:52 57° W 10:14:10 10° N
Lacrosse 4 Rocket 2.7 10:09:21 10° SW 10:13:08 38° WNW 10:17:01 10° N
YAOGAN 1 4.0 10:09:43 10° SSW 10:13:41 36° W 10:17:42 10° NNW
Cosmos 1470 4.4 10:13:56 10° SW 10:17:27 34° W 10:20:59 10° NNW
Cosmos 1025 Rocket 3.6 10:13:53 10° N 10:17:00 46° N 10:17:00 46° N
Okean O Rocket 2.9 10:16:27 10° SSW 10:20:30 39° W 10:24:37 10° NNW
Cosmos 1486 Rocket 4.2 10:17:28 10° SSW 10:22:45 70° WNW 10:28:05 10° NNE
Cosmos 2263 Rocket 4.3 10:22:59 10° NW 10:27:30 24° WSW 10:31:58 10° SSW
Cosmos 2219 Rocket 4.5 10:22:27 10° S 10:22:29 10° S 10:22:29 10° S
Cosmos 2208 Rocket 4.4 10:26:26 10° NNW 10:31:46 63° WSW 10:33:22 43° SSW
Meteor 1-24 Rocket 4.1 10:28:32 10° NNW 10:33:46 58° W 10:36:36 27° SSW
NOSS 3-3 (A) 4.2 10:31:15 10° SW 10:36:35 59° NW 10:40:53 19° NNE
NOSS 3-3 (C) 4.2 10:31:20 10° SW 10:36:40 60° NW 10:40:48 20° NNE
CSL-04 Debris 4.3 10:43:28 69° WSW 10:43:35 70° WSW 10:48:58 10° NNW
Cosmos 1844 4.3 10:39:27 10° NNW 10:43:22 45° N 10:43:22 45° N
Cosmos 2333 Rocket 2.4 10:39:23 10° SSW 10:44:28 68° SW 10:44:28 68° SW
Cosmos 1975 Rocket 4.3 10:41:40 10° NNW 10:44:51 38° NW 10:44:51 38° NW
Cosmos 2360 Rocket 3.4 10:46:02 10° SW 10:51:18 40° WNW 10:56:36 10° N
USA 267 4.4 11:20:51 33° SW 11:21:11 34° SW 11:27:01 10° WNW
